Location: Kumla
(59.1265°N, 15.1401°E)
Time: 20:19:57
(UTC+01:00)

Transit 2A - Pass Details

Date: 11 December 2023
Orbit: 600 x 953 km, 66.7° (Epoch: 24 February)

Event Time Altitude Azimuth Distance (km) Brightness Sun altitude
Rises 21:07:22 0° 309° (NW) 2,892 9.8 -43.7°
Enters shadow 21:08:35 - 310° (NW) 2,399 9.3 -43.8°
Reaches altitude 10° 21:09:39 10° 311° (NW) 1,966 - -43.9°
Maximum altitude 21:14:02 83° 37° (NE) 613 - -44.4°
Drops below altitude 10° 21:18:25 10° 128° (SE) 1,964 - -44.8°
Sets 21:20:42 0° 130° (SE) 2,889 - -45.1°
